Location: Bolzano
(46.5170°N, 11.3670°E)
Time: 06:11:13
(UTC+01:00)

ISS - Pass Details

Date: 07 December 2021
Orbit: 413 x 423 km, 51.6° (Epoch: 18 January)

Event Time Altitude Azimuth Distance (km) Brightness Sun altitude
Rises 17:05:51 0° 296° (WNW) 2,383 0.7 -6.6°
Reaches altitude 10° 17:07:58 10° 295° (WNW) 1,513 -0.3 -6.9°
Maximum altitude 17:11:22 80° 211° (SSW) 433 -3.6 -7.4°
Drops below altitude 10° 17:14:44 10° 122° (ESE) 1,500 -1.3 -8.0°
Enters shadow 17:17:19 -2° 121° (ESE) 2,565 -0.1 -8.4°
